This is the latest recevied weather packets stored in our database for station/object ED5YAL-15. If no packets are shown the sender has not sent any weather packets the latest 10 day(s).
| Time | Temp. | Humidity | Pressure | Rain* | Wind** | Luminosity | Snow |
|---|---|---|---|---|---|---|---|
| 1787676770 | 32.22° C | 32% | 1020.4 hPa | - | - | - | - |
| 1787675869 | 32.78° C | 32% | 1020.4 hPa | - | - | - | - |
| 1787674969 | 33.33° C | 32% | 1020.4 hPa | - | - | - | - |
| 1787674070 | 34.44° C | 31% | 1020.3 hPa | - | - | - | - |
| 1787673167 | 34.44° C | 31% | 1020.4 hPa | - | - | - | - |
| 1787672264 | 34.44° C | 30% | 1020.4 hPa | - | - | - | - |
| 1787671363 | 34.44° C | 31% | 1020.5 hPa | - | - | - | - |
| 1787670463 | 33.33° C | 32% | 1020.6 hPa | - | - | - | - |
| 1787669565 | 32.22° C | 31% | 1020.7 hPa | - | - | - | - |
| 1787668661 | 32.22° C | 31% | 1020.8 hPa | - | - | - | - |
| 1787667760 | 32.78° C | 31% | 1020.8 hPa | - | - | - | - |
| 1787666859 | 33.33° C | 31% | 1021 hPa | - | - | - | - |
| 1787665958 | 33.33° C | 31% | 1021.1 hPa | - | - | - | - |
| 1787665058 | 33.33° C | 31% | 1021.1 hPa | - | - | - | - |
| 1787664157 | 32.78° C | 31% | 1021.3 hPa | - | - | - | - |
| 1787663256 | 33.33° C | 31% | 1021.4 hPa | - | - | - | - |
| 1787662355 | 33.33° C | 31% | 1021.5 hPa | - | - | - | - |
| 1787661454 | 32.78° C | 31% | 1021.7 hPa | - | - | - | - |
| 1787660554 | 31.67° C | 31% | 1021.7 hPa | - | - | - | - |
| 1787659653 | 31.67° C | 31% | 1021.8 hPa | - | - | - | - |
| 1787658752 | 31.11° C | 32% | 1021.8 hPa | - | - | - | - |
| 1787657851 | 31.11° C | 32% | 1021.7 hPa | - | - | - | - |
| 1787656950 | 30.56° C | 32% | 1021.7 hPa | - | - | - | - |
| 1787656049 | 31.67° C | 32% | 1021.8 hPa | - | - | - | - |
| 1787655167 | 29.44° C | 32% | 1022 hPa | - | - | - | - |
* Rain since midnight (hover to see other rain measurements)
** Current wind speed in m/s (hover to see current wind gust speed)